Main page
METAR-TAF:

METAR-TAF

Airports :

Orlando Executive Airport

Orlando, Florida, United States

latitude: 28-32-47N, longitude: 081-20-09W, elevation: 112 ft

Current weather observation

The report was made 26 minutes ago, at 08:53 UTC
Wind 7 mph from the South
Temperature 72°F
Humidity 94%
Pressure 30.06 in. Hg
Visibility: 10 miles
Clear sky

METAR: KORL 010853Z AUTO 18006KT 10SM CLR 22/21 A3006 RMK AO2 SLP182 T02220211 56013

Time: 04:19 (09:19 UTC)


TAF: missing

Weather observations and forecasts of more than 4000 airports (METAR and TAF reports).

The available stations are represented by yellow and red dots on the map.

Hover mouse over dot to see the name of the station.

Then click to see weather observations and forecasts.

To change the map : click on the green buttons with a black cross to zoom in, on the green button with a dash to zoom out, or on the green arrows for adjacent maps.


METAR-TAF: